Terminal Aerodrome Forecast
Issued by NWS

Home | Current Version | Previous Version | Text Only | Print | Product List | Glossary On
Versions: 1 2 3 4 5 6 7 8 9 10 11 12 13 14
000
FTUS41 KCAR 270500 RRA
TAFHUL
TAF
KHUL 270549Z 2706/2806 21006KT P6SM SCT005
     FM271230 22008KT P6SM SCT050
     FM272200 28006KT P6SM BKN090=

USA.gov is the U.S. government's official web portal to all federal, state and local government web resources and services.